Regional Weather Roundup
Issued by NWS Kansas City/Pleasant Hill, MO

Home | Current Version | Previous Version | Text Only | Print | Product List | Glossary On
Versions: 1 2 3 4 5 6 7 8 9 10 11 12 13 14 15 16 17 18 19 20 21 22 23 24 25 26 27 28 29 30 31 32 33 34 35 36 37 38 39 40 41 42 43 44 45 46 47 48 49 50
000
ASUS43 KEAX 070811
RWREAX

WEATHER ROUNDUP FOR EASTERN KANSAS AND NORTHWEST MISSOURI
NATIONAL WEATHER SERVICE KANSAS CITY/PLEASANT HILL MO
300 AM CDT THU MAY 07 2015

KSZ040-057-103>105-MOZ028-029-037-043-070900-
...KANSAS CITY METROPOLITAN AREA...

CITY           SKY/WX    TMP DP  RH WIND       PRES   REMARKS
K.C. INTL      MOCLDY    69  57  65 S21G33    29.81F
K.C. DOWNTOWN  MOCLDY    71  57  61 S16G35    29.82F
LEES SUMMIT    PTCLDY    69  56  62 S18G28    29.84F
OLATHE - IXD   PTCLDY    67  58  72 SE18G26   29.83F
OLATHE - OJC   PTCLDY    67  58  72 S15G24    29.83F
LAWRENCE       MOCLDY    68  57  68 S18G25    29.81S

$$

MOZ001>008-011>017-020>025-030>033-038>040-044>046-053-054-070900-
...NORTHERN AND CENTRAL MISSOURI...

CITY           SKY/WX    TMP DP  RH WIND       PRES   REMARKS
ST. JOSEPH     MOCLDY    70  57  63 S21G35    29.78F
MOSBY          PTSUNNY   70  55  60 S16G23    29.83F
HARRISONVILLE  PTCLDY    70  59  68 S9G16     29.91F
WARRENSBURG    PTCLDY    66  55  68 S9        29.89F
WHITEMAN AFB   PTCLDY    67  56  68 S13       29.90S
CLINTON        MOCLDY    70  57  64 S12       29.92S
SEDALIA        MOCLDY    70  54  56 S15G25    29.92F
WARSAW         NOT AVBL
MARSHALL       CLOUDY    66  57  72 SE6       29.92F
CHILLICOTHE      N/A     69  56  62 S10       29.89F
MOBERLY        PTCLDY    66  54  63 SE10      29.95F
KIRKSVILLE     CLEAR     62  56  80 S10       29.94F

$$

MOZ041-047>049-056>058-063>065-088>090-097-070900-
...EASTERN AND SOUTHERN MISSOURI...

CITY           SKY/WX    TMP DP  RH WIND       PRES   REMARKS
ST. LOUIS INTL MOCLDY    72  51  47 SE9       30.02S
SPIRIT OF STL  MOCLDY    64  52  64 CALM      30.00S
COLUMBIA       PTCLDY    65  54  67 SE7       29.96F
JEFFERSON CITY PTCLDY    66  54  65 E10       29.96F
MEXICO         PTCLDY    64  57  77 SE8       29.97F
HANNIBAL       PTCLDY    70  46  43 S8        29.97F
ROLLA          PTCLDY    65  51  60 SE9       29.99S
LEBANON        MOCLDY    66  54  63 CALM      29.98F
OSAGE BEACH    PTCLDY    66  54  63 S5        29.96F
SPRINGFIELD    CLOUDY    67  56  67 S14       29.94F
BRANSON        CLOUDY    66  57  72 CALM      30.00S
NEVADA         MOCLDY    66  59  77 SW3       29.94R
JOPLIN         CLOUDY    70  58  65 S15G21    29.91S
WEST PLAINS    MOCLDY    66  51  58 SE7       30.03S

$$

IAZ060-094-KSZ022-034>040-054-083-096-NEZ052-066-093-070900-
...KANSAS...SOUTHEAST NEBRASKA AND IOWA...

CITY           SKY/WX    TMP DP  RH WIND       PRES   REMARKS
TOPEKA         CLOUDY    69  58  67 S20G29    29.77F
MANHATTAN      CLOUDY    69  57  65 S10G22    29.72F
EMPORIA        CLOUDY    67  54  63 S18       29.76S
CHANUTE        CLOUDY    68  60  75 S15       29.86F
WICHITA        MOCLDY    66  58  75 S20G29    29.77S
OMAHA          TSTM      61  60  97 E3        29.76S FOG
LINCOLN        TSTM      60  58  92 NW8       29.75R VSB 3/4
FALLS CITY     MOCLDY    68  57  68 S22G37    29.72F
LAMONI         MOCLDY    68  56  65 SE16      29.83F
DES MOINES     CLOUDY    69  55  60 S20G26    29.81F

$$




USA.gov is the U.S. government's official web portal to all federal, state and local government web resources and services.